Regional Weather Roundup
Issued by NWS

Home | Current Version | Previous Version | Graphics & Text | Print | Product List | Glossary On
Versions: 1 2 3 4 5 6 7 8 9 10 11 12 13 14 15 16 17 18 19 20 21 22 23 24 25 26 27 28 29 30 31 32 33 34 35 36 37 38 39 40 41 42 43 44 45 46 47 48 49 50
000
ASUS45 KABQ 280210
RWRNM
WEATHER ROUNDUP FOR NEW MEXICO
NATIONAL WEATHER SERVICE ALBUQUERQUE NM
800 PM MDT FRI MAR 27 2015

NOTE: "FAIR" MEANS FEW OR NO CLOUDS BELOW 12,000 FEET AGL WITH NO
       SIGNIFICANT WEATHER OR OBSTRUCTIONS TO VISION.

      THIS PRODUCT IS RELEASED AS TWO VERSIONS.  ONE VERSION NEAR
      THE TOP OF THE HOUR CONTAINING PRELIMINARY DATA FROM ALBUQUERQUE
      AND OTHER STATIONS.  A FINAL VERSION WITH ADDITIONAL DATA IS
      ISSUED ABOUT 10 MINUTES AFTER THE HOUR.

NMZ501-503-504-510>518-280300-
NORTHWEST PLATEAU/NORTHCENTRAL MOUNTAINS

CITY           SKY/WX    TMP DP  RH WIND       PRES   REMARKS
FARMINGTON     CLEAR     63  19  18 W15       30.16R
LOS ALAMOS     CLEAR     61  12  14 NE5       30.23R
SANTA FE       CLEAR     57  14  18 W10       30.16R
TAOS           CLOUDY    61  21  21 N9        30.21R
ANGEL FIRE     CLOUDY    51  27  38 NW10G18   30.28R

$$
NMZ402-403-502-505>509-280300-
WESTCENTRAL MOUNTAINS/SOUTHWEST MOUNTAINS

CITY           SKY/WX    TMP DP  RH WIND       PRES   REMARKS
GALLUP         CLEAR     63  13  14 SW8       30.23R
GRANTS         CLEAR     57  11  15 W9        30.23R
SILVER CITY    CLEAR     61  16  17 NW6       30.20S

$$
NMZ407-409-411-412-280300-
SOUTHERN DESERTS

CITY           SKY/WX    TMP DP  RH WIND       PRES   REMARKS
LORDSBURG      FAIR      64  12  13 W7        30.14R
DEMING         CLEAR     70   9   9 SW6       30.13R
LAS CRUCES     CLEAR     68  16  13 S5        30.14S
HOLLOMAN AFB   PTCLDY    68  19  15 E5        30.10S
ALAMOGORDO     PTCLDY    66  16  14 CALM      30.13R
T OR C         CLEAR     69  19  15 S5        30.12R

$$
NMZ519>523-280300-
CENTRAL VALLEYS/CENTRAL HIGHLANDS

CITY           SKY/WX    TMP DP  RH WIND       PRES   REMARKS
ALBUQUERQUE    PTCLDY    71  14  11 NW10      30.15R
DOUBLE EAGLE   CLEAR     61  12  15 NW12      30.18R
MORIARTY ARPT  FAIR      58  10  14 W10       30.19R
CLINES CORNERS CLEAR     56  14  19 W14       30.20R
BELEN          FAIR      66  14  13 N3        30.14R
SOCORRO        FAIR      64  17  16 W8        30.13R

$$
NMZ524>526-539-540-280300-
SOUTHCENTRAL MOUNTAINS

CITY           SKY/WX    TMP DP  RH WIND       PRES   REMARKS
RUIDOSO        CLEAR     57  14  18 W5        30.26S

$$
NMZ527>531-280300-
NORTHEAST HIGHLANDS/NORTHEAST PLAINS

CITY           SKY/WX    TMP DP  RH WIND       PRES   REMARKS
LAS VEGAS      CLEAR     55  19  24 NW10      30.17R
RATON          PTCLDY    57  22  25 SE6       30.12R
CLAYTON        PTCLDY    55  28  35 E6        30.12R

$$
NMZ532>537-280300-
EASTCENTRAL PLAINS

CITY           SKY/WX    TMP DP  RH WIND       PRES   REMARKS
TUCUMCARI      CLEAR     61  25  25 S9        30.04S
CANNON AFB     NOT AVBL
CLOVIS AIRPORT CLEAR     57  30  35 SE9       30.10R

$$
NMZ028-029-538-280300-
SOUTHEAST PLAINS

CITY           SKY/WX    TMP DP  RH WIND       PRES   REMARKS
ROSWELL        CLEAR     66  29  24 S9        30.06R
ARTESIA        CLEAR     64  30  27 SE6       30.07S
CARLSBAD       CLEAR     69  32  25 SE7       30.05S
HOBBS          CLEAR     63  23  22 S8        30.10S


$$



USA.gov is the U.S. government's official web portal to all federal, state and local government web resources and services.